�N����,����,�~����,�C��,���x,�C��,����,���ϕ���,�ő�u�ԕ���,�ő厞����,���˗�,�I�_���x,�n�����x,�ő啗���N��,DTYPE
"23/06/25","00:10",0.0,20.8,86.5,1010.2,329.1,1.5,2.5,336.8,0.00,18.5,21.7,"00:03:52",1
"23/06/25","00:20",0.0,20.8,86.9,1010.2,321.5,1.6,2.6,326.9,0.00,18.6,21.8,"00:19:20",1
"23/06/25","00:30",0.0,20.7,87.3,1010.2,329.5,1.7,2.4,334.4,0.00,18.6,21.6,"00:29:52",1
"23/06/25","00:40",0.0,20.6,87.7,1010.4,328.0,1.6,2.4,345.0,0.00,18.5,21.6,"00:31:20",1
"23/06/25","00:50",0.0,20.6,88.0,1010.2,333.8,1.8,4.0,340.7,0.00,18.6,21.6,"00:45:04",1
"23/06/25","01:00",0.0,20.7,87.9,1010.2,322.8,2.1,3.4,335.2,0.00,18.7,21.6,"00:53:52",1
"23/06/25","01:10",0.0,20.7,87.8,1010.0,318.6,1.8,2.8,319.9,0.00,18.6,21.6,"01:05:12",1
"23/06/25","01:20",0.0,20.6,87.9,1010.2,323.1,1.8,2.6,300.2,0.00,18.6,21.4,"01:12:40",1
"23/06/25","01:30",0.0,20.4,88.1,1010.2,334.5,1.7,2.8,333.8,0.00,18.4,21.8,"01:20:08",1
"23/06/25","01:40",0.0,20.4,88.2,1010.2,331.1,2.1,3.2,345.5,0.00,18.4,21.6,"01:31:20",1
"23/06/25","01:50",0.0,20.4,88.2,1010.7,331.4,1.8,2.8,334.2,0.00,18.4,21.5,"01:44:40",1
"23/06/25","02:00",0.0,20.4,88.3,1010.2,336.9,2.0,3.3,338.6,0.00,18.4,21.5,"01:57:28",1
"23/06/25","02:10",0.0,20.3,88.4,1010.7,335.0,2.3,3.7,339.8,0.00,18.4,21.5,"02:01:44",1
"23/06/25","02:20",0.0,20.4,88.4,1010.2,331.8,2.2,4.0,331.3,0.00,18.5,21.6,"02:16:56",1
"23/06/25","02:30",0.0,20.4,88.2,1010.0,330.6,2.3,3.5,332.1,0.00,18.4,21.4,"02:29:20",1
"23/06/25","02:40",0.0,20.3,88.1,1010.2,335.5,2.0,3.5,342.5,0.00,18.3,21.5,"02:30:32",1
"23/06/25","02:50",0.0,20.2,88.3,1010.2,333.4,2.0,3.2,340.1,0.00,18.2,21.3,"02:47:52",1
"23/06/25","03:00",0.0,20.2,88.5,1010.2,333.1,2.3,3.6,336.0,0.00,18.3,21.4,"02:56:56",1
"23/06/25","03:10",0.0,20.1,88.5,1010.4,330.3,2.1,3.6,320.4,0.00,18.2,21.3,"03:01:44",1
"23/06/25","03:20",0.0,20.1,88.7,1010.7,334.1,2.2,3.4,346.0,0.00,18.2,21.3,"03:19:12",1
"23/06/25","03:30",0.0,20.1,88.8,1010.2,336.6,2.0,3.4,339.8,0.00,18.2,21.2,"03:23:36",1
"23/06/25","03:40",0.0,20.0,88.9,1010.2,334.1,2.0,3.1,349.4,0.00,18.2,21.3,"03:30:40",1
"23/06/25","03:50",0.0,19.8,89.0,1010.4,341.5,1.5,3.1,334.4,0.00,18.0,21.3,"03:47:20",1
"23/06/25","04:00",0.0,19.7,89.3,1010.0,337.2,1.5,2.7,328.0,0.00,17.9,21.2,"03:55:12",1
"23/06/25","04:10",0.0,19.7,89.6,1010.2,334.2,1.6,3.3,335.2,0.00,18.0,21.2,"04:07:44",1
"23/06/25","04:20",0.0,19.6,90.0,1010.2,338.4,1.6,2.8,332.3,0.00,18.0,21.3,"04:19:52",1
"23/06/25","04:30",0.0,19.5,90.1,1009.7,338.4,1.6,4.0,323.1,0.00,17.9,21.1,"04:21:28",1
"23/06/25","04:40",0.0,19.3,90.4,1010.2,338.2,1.5,2.6,341.3,0.00,17.7,21.2,"04:32:00",1
"23/06/25","04:50",0.0,19.1,90.6,1010.2,336.6,1.6,2.6,339.8,0.00,17.6,21.1,"04:49:36",1
"23/06/25","05:00",0.0,19.1,90.9,1010.2,342.8,1.6,3.1,334.5,0.00,17.6,21.0,"04:53:36",1
"23/06/25","05:10",0.0,19.1,91.1,1010.0,336.0,1.8,3.3,329.8,0.00,17.7,21.0,"05:07:36",1
"23/06/25","05:20",0.0,19.3,91.3,1010.2,333.4,2.0,3.6,338.3,0.00,17.9,21.1,"05:12:16",1
"23/06/25","05:30",0.0,19.2,91.4,1010.0,338.8,1.6,3.2,347.2,0.00,17.8,21.0,"05:21:28",1
"23/06/25","05:40",0.0,19.1,91.5,1010.4,342.9,1.3,2.2,331.6,0.00,17.7,21.1,"05:32:16",1
"23/06/25","05:50",0.0,19.1,91.7,1010.7,335.6,1.5,2.8,335.2,0.00,17.8,21.0,"05:45:28",1
"23/06/25","06:00",0.0,19.2,91.8,1010.9,342.8,1.6,3.3,348.5,0.00,17.9,21.0,"05:50:24",1
"23/06/25","06:10",0.0,19.2,92.0,1010.7,339.6,1.6,2.8,345.5,0.00,17.9,21.0,"06:06:08",1
"23/06/25","06:20",0.0,19.4,92.0,1010.9,339.0,2.0,4.3,342.8,0.01,18.1,20.9,"06:14:24",1
"23/06/25","06:30",0.0,19.4,92.1,1010.7,336.3,1.6,3.6,341.1,0.02,18.1,20.8,"06:26:24",1
"23/06/25","06:40",0.0,19.6,92.1,1010.9,334.6,1.8,3.1,345.6,0.03,18.3,21.1,"06:37:20",1
"23/06/25","06:50",0.0,19.6,91.9,1011.2,341.2,1.6,3.1,339.6,0.03,18.3,20.9,"06:45:04",1
"23/06/25","07:00",0.0,19.8,91.8,1011.2,334.1,1.6,2.9,320.0,0.04,18.5,20.8,"06:57:12",1
"23/06/25","07:10",0.0,20.2,91.5,1011.2,335.2,1.6,3.2,312.3,0.06,18.8,20.7,"07:01:04",1
"23/06/25","07:20",0.0,20.6,91.0,1011.2,337.3,1.5,2.6,342.6,0.08,19.1,20.8,"07:11:04",1
"23/06/25","07:30",0.0,20.8,90.2,1011.4,339.2,1.7,2.8,327.4,0.08,19.2,20.9,"07:24:00",1
"23/06/25","07:40",0.0,21.1,89.4,1011.4,334.6,1.7,2.7,334.9,0.10,19.3,20.8,"07:38:08",1
"23/06/25","07:50",0.0,21.2,88.3,1011.4,331.8,2.2,3.4,329.8,0.11,19.2,21.1,"07:42:24",1
"23/06/25","08:00",0.0,21.6,87.1,1010.9,330.8,1.7,3.1,331.0,0.12,19.4,20.9,"07:51:44",1
"23/06/25","08:10",0.0,21.7,86.0,1011.4,334.5,1.7,3.2,343.2,0.12,19.3,20.7,"08:02:32",1
"23/06/25","08:20",0.0,22.0,84.8,1011.2,330.9,1.6,2.2,327.8,0.13,19.4,20.8,"08:13:44",1
"23/06/25","08:30",0.0,22.4,83.9,1010.9,335.8,1.1,2.5,340.3,0.14,19.6,20.8,"08:23:20",1
"23/06/25","08:40",0.0,23.1,82.4,1011.4,316.4,0.6,1.4,288.3,0.14,20.0,20.9,"08:39:28",1
"23/06/25","08:50",0.0,23.3,80.7,1010.7,287.7,0.7,2.5,317.2,0.16,19.8,20.8,"08:43:28",1
"23/06/25","09:00",0.0,23.6,79.2,1010.4,333.8,0.7,1.9,351.3,0.17,19.8,20.8,"08:56:56",1
"23/06/25","09:10",0.0,23.9,76.8,1010.7,346.6,0.8,2.0,342.2,0.16,19.6,20.8,"09:06:16",1
"23/06/25","09:20",0.0,24.2,75.4,1010.2,354.0,0.7,1.3,336.2,0.16,19.6,21.0,"09:18:56",1
"23/06/25","09:30",0.0,24.3,75.1,1010.4,335.4,1.0,1.6,346.3,0.16,19.6,20.7,"09:20:48",1
"23/06/25","09:40",0.0,24.5,74.8,1010.4,347.9,0.7,1.6,345.5,0.17,19.8,20.8,"09:30:40",1
"23/06/25","09:50",0.0,24.7,74.3,1009.7,296.5,0.8,2.0,254.6,0.19,19.9,21.0,"09:49:20",1
"23/06/25","10:00",0.0,24.7,74.5,1009.7,236.6,0.5,1.3,245.8,0.19,19.9,21.1,"09:53:20",1
"23/06/25","10:10",0.0,24.9,73.3,1009.7,44.3,0.6,1.7,341.8,0.19,19.8,21.1,"10:09:28",1
"23/06/25","10:20",0.0,25.0,72.4,1009.5,9.3,0.5,1.6,1.6,0.21,19.7,21.0,"10:14:40",1
"23/06/25","10:30",0.0,25.7,71.8,1008.8,59.0,0.1,0.9,34.5,0.21,20.3,21.1,"10:21:44",1
"23/06/25","10:40",0.0,26.1,70.2,1009.7,14.5,0.5,1.4,44.7,0.24,20.3,21.1,"10:34:32",1
"23/06/25","10:50",0.0,26.2,68.0,1009.3,14.7,0.7,1.7,15.7,0.26,19.9,20.9,"10:48:56",1
"23/06/25","11:00",0.0,26.5,66.7,1009.3,9.1,0.7,2.1,10.3,0.27,19.8,21.2,"10:53:12",1
"23/06/25","11:10",0.0,27.0,67.6,1009.5,359.9,0.3,1.1,39.1,0.29,20.5,21.2,"11:06:24",1
"23/06/25","11:20",0.0,27.0,67.2,1009.7,52.8,0.5,1.6,57.4,0.27,20.4,21.2,"11:14:08",1
"23/06/25","11:30",0.0,27.7,66.9,1010.2,121.6,0.5,1.4,23.6,0.42,21.0,21.2,"11:23:28",1
"23/06/25","11:40",0.0,28.3,67.1,1010.2,147.5,0.8,2.4,128.5,0.44,21.7,21.2,"11:34:08",1
"23/06/25","11:50",0.0,28.8,64.0,1010.4,82.6,0.6,1.9,114.0,0.43,21.4,21.1,"11:41:04",1
"23/06/25","12:00",0.0,29.0,62.5,1010.4,94.5,0.7,2.2,4.9,0.40,21.2,21.1,"11:58:48",1
"23/06/25","12:10",0.0,28.8,61.3,1010.2,22.7,0.7,1.9,0.8,0.35,20.7,21.3,"12:00:56",1
"23/06/25","12:20",0.0,28.9,62.8,1010.0,68.9,0.8,2.5,219.0,0.33,21.1,21.5,"12:19:20",1
"23/06/25","12:30",0.0,28.8,62.4,1010.0,225.8,1.5,4.3,214.2,0.44,20.9,21.4,"12:27:28",1
"23/06/25","12:40",0.0,28.8,62.6,1010.0,216.7,1.3,3.3,221.0,0.41,21.0,21.5,"12:30:40",1
"23/06/25","12:50",0.0,28.9,61.3,1010.0,316.9,1.3,2.8,3.5,0.42,20.7,21.3,"12:44:40",1
"23/06/25","13:00",0.0,29.2,59.6,1009.5,303.2,1.1,3.1,235.7,0.39,20.6,21.6,"12:56:32",1
"23/06/25","13:10",0.0,29.1,60.8,1009.3,235.6,2.0,4.4,230.5,0.44,20.8,21.5,"13:01:36",1
"23/06/25","13:20",0.0,29.5,60.0,1009.0,246.7,1.7,3.9,244.7,0.44,21.0,21.7,"13:17:36",1
"23/06/25","13:30",0.0,29.8,57.0,1009.3,236.9,1.3,4.2,230.4,0.45,20.4,21.6,"13:28:32",1
"23/06/25","13:40",0.0,30.1,56.1,1008.8,282.0,1.2,2.7,342.3,0.44,20.4,21.8,"13:38:48",1
"23/06/25","13:50",0.0,30.6,54.3,1009.3,292.0,0.7,2.5,339.8,0.41,20.4,21.8,"13:47:52",1
"23/06/25","14:00",0.0,31.0,56.4,1009.3,261.9,0.8,2.2,224.2,0.45,21.4,21.9,"13:59:28",1
"23/06/25","14:10",0.0,30.5,53.8,1009.3,245.7,1.3,3.3,242.4,0.39,20.1,21.8,"14:09:16",1
"23/06/25","14:20",0.0,30.3,54.5,1009.3,273.2,1.1,2.5,230.2,0.34,20.1,22.1,"14:12:16",1
"23/06/25","14:30",0.0,30.3,54.3,1009.0,218.5,1.6,4.4,195.6,0.33,20.1,21.9,"14:23:36",1
"23/06/25","14:40",0.0,30.2,52.9,1009.0,248.1,1.2,3.2,219.4,0.30,19.6,22.0,"14:36:32",1
"23/06/25","14:50",0.0,30.4,56.0,1008.8,233.0,1.0,3.3,234.3,0.30,20.7,22.0,"14:40:56",1
"23/06/25","15:00",0.0,30.3,55.0,1008.8,224.8,1.7,3.3,239.0,0.34,20.3,22.2,"14:59:20",1
"23/06/25","15:10",0.0,30.0,56.0,1008.6,240.2,1.2,3.1,236.4,0.25,20.3,22.1,"15:00:40",1
"23/06/25","15:20",0.0,30.2,55.1,1008.6,172.0,0.8,3.1,223.5,0.25,20.2,22.1,"15:18:48",1
"23/06/25","15:30",0.0,30.2,57.3,1008.3,232.9,0.7,2.1,245.5,0.22,20.9,22.3,"15:29:52",1
"23/06/25","15:40",0.0,30.2,58.5,1008.1,229.8,0.7,1.9,304.6,0.21,21.2,22.4,"15:30:16",1
"23/06/25","15:50",0.0,30.2,57.7,1008.3,185.6,0.8,1.9,238.9,0.22,21.0,22.3,"15:47:12",1
"23/06/25","16:00",0.0,30.0,58.2,1008.1,225.0,1.2,3.1,215.2,0.21,20.9,22.4,"15:59:28",1
"23/06/25","16:10",0.0,29.6,59.0,1008.1,248.3,1.2,3.4,225.3,0.19,20.8,22.4,"16:02:24",1
"23/06/25","16:20",0.0,29.8,60.8,1007.8,228.0,1.2,2.6,231.5,0.17,21.5,22.3,"16:12:24",1
"23/06/25","16:30",0.0,29.7,62.7,1007.8,178.4,1.1,3.1,189.5,0.18,21.9,22.4,"16:20:16",1
"23/06/25","16:40",0.0,29.2,60.6,1007.4,200.4,1.5,2.5,214.8,0.15,20.8,22.2,"16:33:28",1
"23/06/25","16:50",0.0,29.4,62.2,1007.4,239.1,1.0,2.4,319.0,0.16,21.5,22.4,"16:45:52",1
"23/06/25","17:00",0.0,29.4,63.0,1007.4,191.1,1.1,2.1,202.7,0.15,21.7,22.4,"16:58:40",1
"23/06/25","17:10",0.0,29.4,60.9,1007.6,241.6,0.6,2.9,235.3,0.11,21.1,22.5,"17:08:16",1
"23/06/25","17:20",0.0,29.3,62.9,1007.4,222.6,0.7,1.9,239.1,0.10,21.5,22.5,"17:11:36",1
"23/06/25","17:30",0.0,29.1,61.3,1007.1,227.9,0.8,1.7,203.8,0.10,20.9,22.4,"17:20:08",1
"23/06/25","17:40",0.0,29.3,62.1,1007.1,18.1,0.2,0.8,0.7,0.10,21.3,22.5,"17:30:32",1
"23/06/25","17:50",0.0,29.1,61.7,1006.9,214.9,0.7,2.2,237.1,0.08,21.0,22.5,"17:43:20",1
"23/06/25","18:00",0.0,28.9,61.9,1006.9,264.9,0.6,1.3,202.3,0.07,20.9,22.6,"17:53:52",1
"23/06/25","18:10",0.0,28.8,62.7,1006.7,258.9,0.3,1.2,244.9,0.06,21.0,22.7,"18:03:44",1
"23/06/25","18:20",0.0,28.5,64.6,1006.7,91.4,0.8,1.9,109.2,0.05,21.2,22.5,"18:19:44",1
"23/06/25","18:30",0.0,28.2,65.0,1006.7,71.3,0.7,2.4,34.2,0.05,21.0,22.6,"18:25:28",1
"23/06/25","18:40",0.0,28.0,65.6,1006.2,92.3,0.6,2.0,76.2,0.04,21.0,22.5,"18:38:32",1
"23/06/25","18:50",0.0,27.6,66.0,1006.2,118.7,0.8,2.7,155.4,0.03,20.7,22.6,"18:48:48",1
"23/06/25","19:00",0.0,27.3,66.5,1006.9,114.7,0.6,1.4,107.2,0.02,20.6,22.5,"18:53:20",1
"23/06/25","19:10",0.0,27.3,67.1,1007.4,32.5,0.5,1.3,103.1,0.01,20.7,22.5,"19:02:16",1
"23/06/25","19:20",0.0,27.2,67.6,1007.1,336.7,0.2,1.1,305.8,0.01,20.7,22.5,"19:16:24",1
"23/06/25","19:30",0.0,27.0,68.6,1007.4,353.7,0.6,1.2,342.3,0.00,20.8,22.5,"19:28:32",1
"23/06/25","19:40",0.0,26.8,70.1,1007.4,353.0,0.7,1.3,346.0,0.00,20.9,22.5,"19:30:16",1
"23/06/25","19:50",0.0,26.5,73.2,1007.4,351.5,0.8,1.4,345.4,0.00,21.4,22.5,"19:47:36",1
"23/06/25","20:00",0.0,25.7,76.0,1007.1,339.7,1.0,2.2,324.4,0.00,21.2,22.6,"19:58:32",1
"23/06/25","20:10",0.0,25.3,78.2,1007.4,329.0,1.0,1.7,343.3,0.00,21.3,22.5,"20:00:56",1
"23/06/25","20:20",0.0,24.9,80.1,1007.8,310.6,0.7,1.1,328.4,0.00,21.3,22.5,"20:12:00",1
"23/06/25","20:30",0.0,24.6,81.5,1008.1,311.5,1.0,1.8,336.0,0.00,21.3,22.5,"20:25:04",1
"23/06/25","20:40",0.0,24.4,82.5,1008.3,331.3,1.0,1.8,345.0,0.00,21.3,22.3,"20:32:16",1
"23/06/25","20:50",0.0,24.2,83.6,1008.3,335.1,1.0,1.4,342.1,0.00,21.3,22.5,"20:48:32",1
"23/06/25","21:00",0.0,23.8,84.5,1008.1,313.3,1.0,1.4,322.0,0.00,21.1,22.5,"20:52:24",1
"23/06/25","21:10",0.0,23.7,85.1,1008.3,302.0,1.0,1.9,323.0,0.00,21.1,22.3,"21:08:48",1
"23/06/25","21:20",0.0,23.7,85.7,1008.6,325.5,1.1,1.4,340.8,0.00,21.2,22.3,"21:16:16",1
"23/06/25","21:30",0.0,23.3,86.2,1008.3,307.3,1.0,1.4,316.3,0.00,20.9,22.4,"21:20:24",1
"23/06/25","21:40",0.0,23.2,86.6,1008.8,297.2,1.0,1.6,303.6,0.00,20.9,22.2,"21:34:24",1
"23/06/25","21:50",0.0,23.2,86.9,1009.0,329.4,1.2,1.8,324.9,0.00,20.9,22.2,"21:41:12",1
"23/06/25","22:00",0.0,23.0,87.3,1008.8,296.1,1.0,1.8,312.0,0.00,20.8,22.3,"21:56:32",1
"23/06/25","22:10",0.0,22.9,87.4,1009.3,290.1,1.0,1.8,250.4,0.00,20.7,22.2,"22:09:36",1
"23/06/25","22:20",0.0,22.9,87.5,1009.0,320.0,1.0,1.6,331.8,0.00,20.8,22.1,"22:13:12",1
"23/06/25","22:30",0.0,22.6,87.7,1009.3,308.1,0.6,1.0,330.9,0.00,20.5,22.1,"22:21:04",1
"23/06/25","22:40",0.0,22.4,88.1,1009.3,311.1,1.1,2.4,333.6,0.00,20.4,22.2,"22:35:36",1
"23/06/25","22:50",0.0,22.5,88.3,1009.3,331.7,1.1,1.6,351.7,0.00,20.5,22.2,"22:43:20",1
"23/06/25","23:00",0.0,22.3,88.6,1009.3,296.9,1.0,1.6,342.9,0.00,20.4,22.3,"22:59:04",1
"23/06/25","23:10",0.0,22.2,88.9,1009.3,306.9,1.1,1.8,301.6,0.00,20.3,22.1,"23:04:16",1
"23/06/25","23:20",0.0,22.2,89.0,1009.3,314.6,1.3,2.1,329.5,0.00,20.3,22.2,"23:14:16",1
"23/06/25","23:30",0.0,22.2,89.1,1009.3,328.9,1.1,2.1,329.5,0.00,20.4,22.1,"23:29:52",1
"23/06/25","23:40",0.0,22.1,89.2,1009.3,313.8,1.1,1.8,332.7,0.00,20.3,22.1,"23:30:16",1
"23/06/25","23:50",0.0,21.9,89.4,1009.5,294.8,1.0,1.3,314.8,0.00,20.1,22.1,"23:45:44",1
"23/06/25","24:00",0.0,21.8,89.4,1010.0,307.6,1.1,1.6,307.7,0.00,20.0,22.1,"23:50:32",1
